Regional Weather Roundup
Issued by NWS Portland, ME

Current Version | Previous Version | Text Only | Print | Product List | Glossary Off
Versions: 1 2 3 4 5 6 7 8 9 10 11 12 13 14 15 16 17 18 19 20 21 22 23 24 25 26 27 28 29 30 31 32 33 34 35 36 37 38 39 40 41 42 43 44 45 46 47 48 49 50
000 ASUS41 KGYX 251705 RWRGYX WEATHER ROUNDUP FOR MAINE AND NEW HAMPSHIRE NATIONAL WEATHER SERVICE GRAY ME 100 PM EDT TUE JUL 25 2017 MEZ002-005-006-010-012-015-018-020-021-024-026-027-029-251800- MAINE CITY SKY/WX TMP DP RH WIND PRES REMARKS PORTLAND MOSUNNY 68 55 63 E8G20 30.12S SANFORD CLOUDY 65 56 72 NE8 30.14R BAR HARBOR CLOUDY 71 54 54 NE9 30.08S WISCASSET PTSUNNY 71 55 56 VRB3 30.12S ROCKLAND CLOUDY 69 56 62 VRB5 30.09S FRYEBURG CLOUDY 68 55 63 N6 30.14R LEWISTONAUBURN N/A 69 53 56 VRB6 30.12R AUGUSTA PTSUNNY 69 51 52 MISG 30.12S WATERVILLE MOSUNNY 70 54 56 NE6 30.09S BANGOR PTSUNNY 71 55 56 N12 30.11R GREENVILLE N/A N/A N/A N/A MISG 30.10S MILLINOCKET SUNNY 73 48 41 VRB6 30.09F HOULTON MOSUNNY 75 52 44 VRB6 30.07F PRESQUE ISLE MOSUNNY 72 54 53 N12 30.10S FRENCHVILLE MOSUNNY 73 47 39 N7 30.10F CARIBOU MOSUNNY 72 51 47 N6 30.09F $$ NHZ002-005-008-009-011-012-014-251800- NEW HAMPSHIRE CITY SKY/WX TMP DP RH WIND PRES REMARKS PORTSMOUTH CLOUDY 63 54 71 NE5 30.12S ROCHESTER CLOUDY 63 53 70 NE5 30.13R NASHUA CLOUDY 62 56 80 VRB3 30.15R MANCHESTER CLOUDY 64 53 67 VRB3 30.12S CONCORD CLOUDY 65 55 70 NE7 30.14R LACONIA CLOUDY 64 53 67 E7 30.15R PLYMOUTH CLOUDY 66 54 63 CALM 30.13S BERLIN CLOUDY 66 52 60 CALM 30.15S WHITEFIELD CLOUDY 69 53 56 VRB3 30.14S JAFFREY CLOUDY 58 56 93 CALM 30.16S KEENE CLOUDY 61 55 81 N5 30.16R LEBANON CLOUDY 64 55 72 CALM 30.14S MT WASHINGTON FOG 41 41 100 E13 N/A VSB 1/16 $$ VTZ005-007-008-251800- VERMONT CITY SKY/WX TMP DP RH WIND PRES REMARKS ST JOHNSBURY N/A 66 54 65 MISG 30.12F MONTPELIER CLOUDY 61 55 81 CALM 30.20R BURLINGTON CLOUDY 65 55 70 NE3 30.16R $$ MAZ007-012-024-CTZ003-RIZ002-NYZ038-NYZ072-251800- SOUTHERN NEW ENGLAND AND NY CITY SKY/WX TMP DP RH WIND PRES REMARKS BOSTON CLOUDY 62 56 80 NE6 30.13R WORCESTER LGT RAIN 56 54 93 VRB5 30.15R NANTUCKET CLOUDY 64 58 80 N21 30.07F PROVIDENCE CLOUDY 62 59 90 NE8 30.13R HARTFORD CLOUDY 64 56 75 VRB5 30.14R ALBANY DRIZZLE 61 57 87 N5 30.14R NEW YORK CITY CLOUDY 66 60 81 NE12 30.11R $$ ANZ081-ANZ082-ANZ150-NHZ014-MEZ023>029-251800- COASTAL MARINE OBSERVATIONS STATION/POSITION TIME TEMP WIND PRES WAVE AIR SEA DIR/SP/G HT/PER (UTC) (F) (DEG/KT/KT) (MB) (FT/S) MOUNT DESERT ROC 1700 57 1018.9R MATINICUS ROCK 1600 59 10/ 7/ 8 1018.5R ISLE OF SHOALS 1600 61 30/ 15/ 17 1019.7R JEFFREYS LEDGE 1636 64 N/A 6/ 8 CASHES LEDGE BUO 1550 61 59 1018.6 6/ 7 GEORGES BANK BUO 1550 58 59 1014.6 6/ 8 $$ .............KEY.............. WCI - WIND CHILL TC - TEMPERATURE IN CELSIUS VSB - VISIBILITY IN MILES HX - HEAT INDEX FAIR- INDICATES FEW OR NO CLOUDS BELOW 12,000 FT, WITH NO SIGNIFICANT WEATHER AND/OR OBSTRUCTIONS TO VISIBILITY.

USA.gov is the U.S. government's official web portal to all federal, state and local government web resources and services.